Location: Unspecified
(0.0000°N, 0.0000°E)
Time: 19:05:45
(UTC+00:00)

Transit 2A Rocket - Pass Details

Date: 28 November 2019
Orbit: 594 x 909 km, 66.7° (Epoch: 08 December)

Event Time Altitude Azimuth Distance (km) Brightness Sun altitude
Rises 06:52:59 0° 306° (NW) 3,073 7.5 15.2°
Reaches altitude 10° 06:56:05 10° 285° (WNW) 2,223 6.9 15.9°
Maximum altitude 06:59:10 16° 247° (WSW) 1,900 6.7 16.6°
Drops below altitude 10° 07:02:25 10° 210° (SSW) 2,358 7.5 17.3°
Sets 07:05:53 0° 189° (S) 3,358 8.5 18.1°
